Hourly Data Report for October 31, 2016

All times are specified in Local Standard Time (LST). Add 1 hour to adjust for Daylight Saving Time where and when it is observed.

QIKIQTARJUAQ A
NUNAVUT

67°32'48.000" N
64°01'54.000" W
5.50 m
2400577
YVM

Download Data

Hourly Data (October 2016)
Hourly Data Report for October 31, 2016
Temp Definition
°C
Dew Point Temp Definition
°C
Rel Hum Definition
%
Wind Dir Definition
10's deg

Wind Spd Definition
km/h
Visibility Definition
km
Stn Press Definition
kPa
Hmdx Definition


Wind Chill Definition


Weather Definition


TIME
00:00 Legend Double Dagger -4.6 -7.9 78   0 16.1 99.73     LegendNANA
01:00 Legend Double Dagger -5.1 -9.0 74 14 8 16.1 99.71   -9 LegendNANA
02:00 Legend Double Dagger -3.6 -7.6 74 14 5 16.1 99.71   -6 LegendNANA
03:00 Legend Double Dagger -4.2 -7.6 77 20 17 16.1 99.64   -10 LegendNANA
04:00 Legend Double Dagger -4.4 -8.2 75   0 16.1 99.60     LegendNANA
05:00 Legend Double Dagger -4.9 -7.9 80 17 11 16.1 99.54   -9 LegendNANA
06:00 Legend Double Dagger -4.2 -8.0 75 19 13 16.1 99.50   -9 LegendNANA
07:00 Legend Double Dagger -4.8 -8.1 78 11 5 16.1 99.47   -7 LegendNANA
08:00 Legend Double Dagger -3.5 -6.2 82 6 9 6.4 99.44   -7 Snow
09:00 Legend Double Dagger -3.8 -4.5 95 19 21 2.4 99.47   -10 Snow
10:00 Legend Double Dagger -3.5 -5.5 86 4 8 16.1 99.53   -7 LegendNANA
11:00 Legend Double Dagger -4.2 -7.1 81 LegendMM 4 16.1 99.60   -6 LegendNANA
12:00 Legend Double Dagger -2.2 -13.2 43 20 37 16.1 99.63   -10 LegendNANA
13:00 Legend Double Dagger -2.8 -13.0 46 18 35 12.9 99.68   -11 Snow
14:00 Legend Double Dagger -3.3 -13.0 47 18 32 16.1 99.77   -11 LegendNANA
15:00 Legend Double Dagger -3.6 -12.4 51 17 32 16.1 99.87   -11 LegendNANA
16:00 Legend Double Dagger -4.0 -11.5 56 17 32 16.1 99.94   -12 LegendNANA
17:00 Legend Double Dagger -3.8 -11.4 56 16 28 16.1 99.97   -11 LegendNANA
18:00 Legend Double Dagger -4.2 -11.5 57 16 24 16.1 99.96   -11 LegendNANA
19:00 Legend Double Dagger -3.7 -11.5 55 16 26 16.1 100.01   -11 LegendNANA
20:00 Legend Double Dagger -3.7 -11.6 54 15 30 16.1 100.04   -11 LegendNANA
21:00 Legend Double Dagger -3.0 -12.4 49 17 24 16.1 100.05   -10 LegendNANA
22:00 Legend Double Dagger -2.4 -13.1 44 17 24 16.1 100.09   -9 LegendNANA
23:00 Legend Double Dagger -2.4 -11.5 50 17 30 16.1 100.09   -10 LegendNANA

Notes on Data Quality.

Legend

  • E = Estimated
  • M = Missing
  • NA = Not Available
  • ‡ = Partner data that is not subject to review by the National Climate Archives
Date modified: